Вернуться в каталог

STARLINK-35469

АктивенСвязьVLEO
NORAD 65863·PAYLOAD·🇺🇸 United States

Запущен Oct 3, 2025 с Vandenberg Space Force Base

Loading…

Ближайшие Пролёты (ближайшие 24 часа)

TLE

СвежийSource: CelesTrak SupGP

Эпоха: Sep 14, 2026, 14:23 UTC

1 65863C 25223K   26257.59979167  .00046898  00000+0  13852-2 0  2579
2 65863  53.1563 133.1321 0001338 109.3653  87.0166 15.34375706    19

Отслеживайте STARLINK-35469 в реальном времени с AllMySat

Download on the App Store